Regional Weather Roundup
Issued by NWS Wilmington, NC

Home | Current Version | Previous Version | Text Only | Print | Product List | Glossary On
Versions: 1 2 3 4 5 6 7 8 9 10 11 12 13 14 15 16 17 18 19 20 21 22 23 24 25 26 27 28 29 30 31 32 33 34 35 36 37 38 39 40 41 42 43 44 45 46 47 48 49 50
000
ASUS42 KILM 191512
RWRILM
RWRILM
REGIONAL HOURLY WEATHER ROUNDUP
NATIONAL WEATHER SERVICE WILMINGTON NC
1000 AM EST SUN FEB 19 2017

NOTE: "FAIR" INDICATES FEW OR NO CLOUDS BELOW 12,000 FEET WITH NO
SIGNIFICANT WEATHER AND/OR OBSTRUCTIONS TO VISIBILITY.

...............WFO WILMINGTON COUNTY WARNING AREA...............

......COASTAL NC AND SC COUNTIES......

CITY           SKY/WX    TMP DP  RH WIND       PRES   REMARKS
WILMINGTON     MOSUNNY   60  48  64 W9        29.99R
N MYRTLE BEACH SUNNY     60  49  66 NW9       30.00S
MYRTLE BEACH   SUNNY     59  48  67 NW8       30.03R

......INLAND NC AND SC COUNTIES.......

CITY           SKY/WX    TMP DP  RH WIND       PRES   REMARKS
LUMBERTON      SUNNY     60  48  64 NW8       30.00R
ELIZABETHTOWN  SUNNY     60  47  60 NW8       29.99R
WHITEVILLE     SUNNY     57  47  68 SW3       30.00R
FLORENCE       SUNNY     59  48  67 NW7       30.03R
DARLINGTON     SUNNY     59  48  67 VRB3      30.02R
KINGSTREE      FAIR      59  48  67 NW12      30.03R
HARTSVILLE     FAIR      57  46  67 W3        30.02R
BENNETTSVILLE  NOT AVBL
CONWAY         FAIR      59  48  67 W5        30.02R
GEORGETOWN     FAIR      61  50  67 W10       30.03S
MARION         FAIR      57  46  67 NW7       30.02R

....................REST OF NORTH CAROLINA......................

.........EASTERN NC.........

CITY           SKY/WX    TMP DP  RH WIND       PRES   REMARKS
CAPE HATTERAS  MOSUNNY   61  46  57 W10       29.94R HAZE
JACKSONVILLE   PTSUNNY   59  47  64 VRB6      29.98R
MOREHEAD CITY  SUNNY     59  48  67 W7        29.94R
KENANSVILLE    NOT AVBL
NEW BERN       SUNNY     61  45  55 W10       29.96R
ELIZABETH CITY SUNNY     61  44  53 W12       29.90F

.........CENTRAL NC.........

CITY           SKY/WX    TMP DP  RH WIND       PRES   REMARKS
RALEIGH DURHAM SUNNY     63  41  44 N10       29.98R
ROCKY MOUNT    SUNNY     61  42  49 NW12G21   29.96R
ROANOKE RAPIDS NOT AVBL
FAYETTEVILLE   SUNNY     62  45  53 NW9       29.99R
HOFFMAN        SUNNY     61  46  58 N7        29.99S

.........WESTERN NC.........

CITY           SKY/WX    TMP DP  RH WIND       PRES   REMARKS
CHARLOTTE      SUNNY     58  46  64 VRB5      30.02R
GREENSBORO     MOSUNNY   59  43  55 N8G20     29.99R
HICKORY        NOT AVBL
BOONE          NOT AVBL
ASHEVILLE      NOT AVBL

.....................REST OF SOUTH CAROLINA.....................

.........EASTERN SC.........

CITY           SKY/WX    TMP DP  RH WIND       PRES   REMARKS
CHARLESTON     MOSUNNY   63  50  62 NW9       30.03R
BEAUFORT MCAS  SUNNY     65  55  70 W8G18     30.05S
HILTON HEAD    SUNNY     68  55  64 SW6       30.06S

.........CENTRAL SC.........

CITY           SKY/WX    TMP DP  RH WIND       PRES   REMARKS
COLUMBIA       SUNNY     62  49  62 NW8       30.02S
ORANGEBURG     SUNNY     62  51  67 NW8       30.02F
SUMTER SHAW    SUNNY     60  48  64 N5        30.00R

.........WESTERN SC.........

CITY           SKY/WX    TMP DP  RH WIND       PRES   REMARKS
GREENVILLE     NOT AVBL
ROCK HILL      SUNNY     58  47  66 CALM      30.02S
ANDERSON       SUNNY     60  48  64 W9        30.04R
CLEMSON        NOT AVBL
GREENWOOD      SUNNY     58  48  69 VRB3      30.05R


...................COASTAL AND OFFSHORE REPORTS..................

................LOCAL PIERS AND NC RESERVE................


STATION/POSITION TIME  SKY/WX   TEMP    WIND        PRES    VSBY
                                AIR SEA DIR/SP/G
                 (UTC)          (F)     (DEG/KT/KT) (MB)    (MI)
JOHNY MRCER PIER 1442            58 57  280/  8/ 10 1014.1R
NC RESRV MASNBRO 1345            56     270/  2     1014.0
OCEAN CREST PIER NOT AVBL
SPRINGMAID  PIER 1448                               1015.6R


................COASTAL AND OFFSHORE BUOYS................


STATION/POSITION TIME  SKY/WX   TEMP    WIND        PRES    VSBY
                                AIR SEA DIR/SP/G
                 (UTC)          (F)     (DEG/KT/KT) (MB)    (MI)
DIMNDSHOAL 41025 1450            62 67  280/ 10/ 12 1013.6R
WVE H/P(F/S)=  2/ 7 SWL H/P/D(F/S/D)=  2/180/ 7

CAPE LOOKOUT     1500            56     270/  9/ 11 1013.7R
ONSLOW BAY 41036 NOT AVBL
ONSLOW BAY 41064 1408            59     300/ 14/ 17 1014.0R
ONSLOW BAY 41159 1443               65                N/A
WVE H/P(F/S)=  2/ 3

MASNBO INL 41110 1459               55                N/A
WVE H/P(F/S)=  2/ 6

WILM HARBR 41108 1447               55                N/A
WVE H/P(F/S)=  3/ 6

27SE WRITB 41037 1408            58 60  270/ 17/ 23 1014.0R
FRYING PAN 41013 1500            60 64  280/ 16/ 19 1015.6
SUNST NRSH 41024 1408            55 55  270/ 10/ 12 1015.7R
CAPRS NRSH 41029 1408            56 58  290/  8/ 12 1016.6R
EDISTO     41004 1450            61 68  290/ 12/ 16 1016.6R
WVE H/P(F/S)=  2/ 3 SWL H/P/D(F/S/D)=  2/ 80/ 9



..........OFFSHORE BUOYS BEYOND 100 NM OFFSHORE...........
.....IN A TRIANGLE---HAT TO BERMUDA TO BAHAMAS TO HAT.....


STATION/POSITION TIME  SKY/WX   TEMP    WIND        PRES    VSBY
                                AIR SEA DIR/SP/G
                 (UTC)          (F)     (DEG/KT/KT) (MB)    (MI)
150E HAT   41001 NOT AVBL
W BERMUDA  41048 1450            69 69  220/ 14/ 17 1018.1R
WVE H/P(F/S)=  4/ 6 SWL H/P/D(F/S/D)=  2/300/ 7

ATLANTIC S 41049 1450            69 72   40/  8/ 10 1022.2S
WVE H/P(F/S)=  7/10 SWL H/P/D(F/S/D)=  7/330/10

E BAHAMAS  41046 1500            76 77   90/ 10/ 14 1019.5
NE BAHAMAS 41047 1500            72 74  170/ 14/ 16 1019.5
120E CANVRL41010 NOT AVBL

END



USA.gov is the U.S. government's official web portal to all federal, state and local government web resources and services.